Time,TemperatureF,DewpointF,PressureIn,WindDirection,WindDirectionDegrees,WindSpeedMPH,WindSpeedGustMPH,Humidity,HourlyPrecipIn,Conditions,Clouds,dailyrainin,SoftwareType,DateUTC
2013-01-25 00:00:00,56.8,37.3,30.06,West,264,0.0,0.0,48,0.00,,,0.00,Wunderground v.1.15,2013-01-25 07:00:00,
2013-01-25 00:05:00,56.6,37.1,30.05,West,265,0.0,0.0,48,0.00,,,0.00,Wunderground v.1.15,2013-01-25 07:05:00,
2013-01-25 00:15:00,55.9,37.0,30.05,West,265,0.0,0.0,49,0.00,,,0.00,Wunderground v.1.15,2013-01-25 07:15:00,
2013-01-25 00:20:00,55.3,36.5,30.06,West,265,0.0,0.0,49,0.00,,,0.00,Wunderground v.1.15,2013-01-25 07:20:00,
2013-01-25 00:30:00,54.6,36.3,30.06,West,264,0.0,0.0,50,0.00,,,0.00,Wunderground v.1.15,2013-01-25 07:30:00,
2013-01-25 00:35:00,54.2,35.9,30.06,West,265,0.0,0.0,50,0.00,,,0.00,Wunderground v.1.15,2013-01-25 07:35:00,
2013-01-25 00:45:00,53.8,36.1,30.07,West,265,0.0,0.0,51,0.00,,,0.00,Wunderground v.1.15,2013-01-25 07:45:00,
2013-01-25 00:50:00,53.5,35.8,30.07,West,265,0.0,0.0,51,0.00,,,0.00,Wunderground v.1.15,2013-01-25 07:50:00,
2013-01-25 00:55:00,53.3,35.6,30.08,West,265,0.0,0.0,51,0.00,,,0.00,Wunderground v.1.15,2013-01-25 07:55:00,
2013-01-25 01:00:00,53.0,35.8,30.07,West,265,0.0,0.0,52,0.00,,,0.00,Wunderground v.1.15,2013-01-25 08:00:00,
2013-01-25 01:05:00,52.7,36.0,30.05,West,265,0.0,0.0,53,0.00,,,0.00,Wunderground v.1.15,2013-01-25 08:05:00,
2013-01-25 01:15:00,52.1,35.9,30.05,West,264,0.0,0.0,54,0.00,,,0.00,Wunderground v.1.15,2013-01-25 08:15:00,
2013-01-25 01:20:00,51.7,35.6,30.06,West,265,0.0,0.0,54,0.00,,,0.00,Wunderground v.1.15,2013-01-25 08:20:00,
2013-01-25 01:25:00,51.3,35.2,30.06,West,265,0.0,0.0,54,0.00,,,0.00,Wunderground v.1.15,2013-01-25 08:25:00,
2013-01-25 01:30:00,51.0,34.9,30.06,West,265,0.0,0.0,54,0.00,,,0.00,Wunderground v.1.15,2013-01-25 08:30:00,
2013-01-25 01:35:00,50.8,34.7,30.06,West,265,0.0,0.0,54,0.00,,,0.00,Wunderground v.1.15,2013-01-25 08:35:00,
2013-01-25 01:40:00,50.6,35.0,30.06,West,264,0.0,0.0,55,0.00,,,0.00,Wunderground v.1.15,2013-01-25 08:40:00,
2013-01-25 01:50:00,50.2,34.6,30.06,West,265,0.0,0.0,55,0.00,,,0.00,Wunderground v.1.15,2013-01-25 08:50:00,
2013-01-25 02:00:00,49.7,34.6,30.06,West,265,0.0,0.0,56,0.00,,,0.00,Wunderground v.1.15,2013-01-25 09:00:00,
2013-01-25 02:05:00,49.4,34.3,30.07,West,264,0.0,0.0,56,0.00,,,0.00,Wunderground v.1.15,2013-01-25 09:05:00,
2013-01-25 02:15:00,49.1,34.5,30.07,West,264,0.0,0.0,57,0.00,,,0.00,Wunderground v.1.15,2013-01-25 09:15:00,
2013-01-25 02:25:00,48.9,33.9,30.07,West,265,0.0,0.0,56,0.00,,,0.00,Wunderground v.1.15,2013-01-25 09:25:00,
2013-01-25 02:30:00,48.8,34.2,30.07,West,264,0.0,0.0,57,0.00,,,0.00,Wunderground v.1.15,2013-01-25 09:30:00,
2013-01-25 02:35:00,48.8,34.2,30.07,West,265,0.0,0.0,57,0.00,,,0.00,Wunderground v.1.15,2013-01-25 09:35:00,
2013-01-25 02:45:00,48.7,33.7,30.07,West,264,0.0,0.0,56,0.00,,,0.00,Wunderground v.1.15,2013-01-25 09:45:00,
2013-01-25 02:50:00,48.6,33.6,30.07,West,264,0.0,0.0,56,0.00,,,0.00,Wunderground v.1.15,2013-01-25 09:50:00,
2013-01-25 02:55:00,48.4,33.4,30.07,West,265,0.0,0.0,56,0.00,,,0.00,Wunderground v.1.15,2013-01-25 09:55:00,
2013-01-25 03:00:00,48.2,33.2,30.08,West,265,0.0,0.0,56,0.00,,,0.00,Wunderground v.1.15,2013-01-25 10:00:00,
2013-01-25 03:05:00,47.9,32.9,30.07,West,264,0.0,0.0,56,0.00,,,0.00,Wunderground v.1.15,2013-01-25 10:05:00,
2013-01-25 03:15:00,47.1,32.6,30.08,West,264,0.0,0.0,57,0.00,,,0.00,Wunderground v.1.15,2013-01-25 10:15:00,
2013-01-25 03:20:00,46.5,31.6,30.08,West,265,0.0,0.0,56,0.00,,,0.00,Wunderground v.1.15,2013-01-25 10:20:00,
2013-01-25 03:25:00,45.9,30.6,30.08,West,265,0.0,0.0,55,0.00,,,0.00,Wunderground v.1.15,2013-01-25 10:25:00,
2013-01-25 03:30:00,45.3,30.5,30.09,West,264,0.0,0.0,56,0.00,,,0.00,Wunderground v.1.15,2013-01-25 10:30:00,
2013-01-25 03:40:00,44.6,30.3,30.09,NW,318,0.0,0.0,57,0.00,,,0.00,Wunderground v.1.15,2013-01-25 10:40:00,
2013-01-25 03:45:00,44.3,30.0,30.09,NW,321,0.0,0.0,57,0.00,,,0.00,Wunderground v.1.15,2013-01-25 10:45:00,
2013-01-25 03:50:00,44.0,29.7,30.09,NW,321,0.0,0.0,57,0.00,,,0.00,Wunderground v.1.15,2013-01-25 10:50:00,
2013-01-25 03:55:00,43.8,30.0,30.08,NNW,329,0.0,0.0,58,0.00,,,0.00,Wunderground v.1.15,2013-01-25 10:55:00,
2013-01-25 04:00:00,43.6,30.2,30.08,North,9,0.0,0.0,59,0.00,,,0.00,Wunderground v.1.15,2013-01-25 11:00:00,
2013-01-25 04:05:00,43.6,30.6,30.09,NNE,13,0.0,0.0,60,0.00,,,0.00,Wunderground v.1.15,2013-01-25 11:05:00,
2013-01-25 04:15:00,43.6,31.0,30.08,NNE,15,0.0,0.0,61,0.00,,,0.00,Wunderground v.1.15,2013-01-25 11:15:00,
2013-01-25 04:20:00,43.6,31.4,30.08,NNE,16,0.0,0.0,62,0.00,,,0.00,Wunderground v.1.15,2013-01-25 11:20:00,
2013-01-25 04:25:00,43.8,31.6,30.07,NNE,15,0.0,0.0,62,0.00,,,0.00,Wunderground v.1.15,2013-01-25 11:25:00,
2013-01-25 04:30:00,43.9,31.7,30.08,NNE,16,0.0,0.0,62,0.00,,,0.00,Wunderground v.1.15,2013-01-25 11:30:00,
2013-01-25 04:35:00,44.0,31.4,30.07,NNE,15,0.0,0.0,61,0.00,,,0.00,Wunderground v.1.15,2013-01-25 11:35:00,
2013-01-25 04:40:00,44.1,31.5,30.08,NNE,16,0.0,0.0,61,0.00,,,0.00,Wunderground v.1.15,2013-01-25 11:40:00,
2013-01-25 04:45:00,44.2,32.0,30.08,NNE,15,0.0,0.0,62,0.00,,,0.00,Wunderground v.1.15,2013-01-25 11:45:00,
2013-01-25 04:50:00,44.3,32.1,30.07,NNE,16,0.0,0.0,62,0.00,,,0.00,Wunderground v.1.15,2013-01-25 11:50:00,
2013-01-25 05:00:00,44.7,32.9,30.07,NNE,16,0.0,0.0,63,0.00,,,0.00,Wunderground v.1.15,2013-01-25 12:00:00,
2013-01-25 05:05:00,44.8,33.0,30.07,NNE,16,0.0,0.0,63,0.00,,,0.00,Wunderground v.1.15,2013-01-25 12:05:00,
2013-01-25 05:15:00,44.8,33.0,30.07,NNE,16,0.0,0.0,63,0.00,,,0.00,Wunderground v.1.15,2013-01-25 12:15:00,
2013-01-25 05:20:00,44.8,32.6,30.07,NNE,16,0.0,0.0,62,0.00,,,0.00,Wunderground v.1.15,2013-01-25 12:20:00,
2013-01-25 05:25:00,44.7,32.9,30.07,NNE,15,0.0,0.0,63,0.00,,,0.00,Wunderground v.1.15,2013-01-25 12:25:00,
2013-01-25 05:35:00,44.4,31.8,30.08,NNW,343,0.0,0.0,61,0.00,,,0.00,Wunderground v.1.15,2013-01-25 12:35:00,
2013-01-25 05:40:00,44.0,31.0,30.09,NNW,342,0.0,1.0,60,0.00,,,0.00,Wunderground v.1.15,2013-01-25 12:40:00,
2013-01-25 05:45:00,43.5,30.5,30.09,NNW,343,0.0,1.0,60,0.00,,,0.00,Wunderground v.1.15,2013-01-25 12:45:00,
2013-01-25 05:55:00,42.9,30.8,30.09,NNW,343,0.0,0.0,62,0.00,,,0.00,Wunderground v.1.15,2013-01-25 12:55:00,
2013-01-25 06:00:00,42.7,31.0,30.09,NNW,343,0.0,0.0,63,0.00,,,0.00,Wunderground v.1.15,2013-01-25 13:00:00,
2013-01-25 06:05:00,42.6,30.5,30.11,NNW,343,0.0,0.0,62,0.00,,,0.00,Wunderground v.1.15,2013-01-25 13:05:00,
2013-01-25 06:15:00,42.5,30.8,30.12,NNW,342,0.0,0.0,63,0.00,,,0.00,Wunderground v.1.15,2013-01-25 13:15:00,
2013-01-25 06:20:00,42.5,30.8,30.12,NNW,343,0.0,0.0,63,0.00,,,0.00,Wunderground v.1.15,2013-01-25 13:20:00,
2013-01-25 06:25:00,42.5,31.2,30.12,NNW,343,0.0,0.0,64,0.00,,,0.00,Wunderground v.1.15,2013-01-25 13:25:00,
2013-01-25 06:35:00,42.4,30.7,30.13,NNW,342,0.0,0.0,63,0.00,,,0.00,Wunderground v.1.15,2013-01-25 13:35:00,
2013-01-25 06:40:00,42.4,30.7,30.13,NNW,343,0.0,0.0,63,0.00,,,0.00,Wunderground v.1.15,2013-01-25 13:40:00,
2013-01-25 06:45:00,42.4,31.1,30.13,NNW,342,0.0,0.0,64,0.00,,,0.00,Wunderground v.1.15,2013-01-25 13:45:00,
2013-01-25 06:50:00,42.3,31.0,30.14,NNW,343,0.0,0.0,64,0.00,,,0.00,Wunderground v.1.15,2013-01-25 13:50:00,
2013-01-25 07:00:00,42.1,31.6,30.13,NNW,342,0.0,0.0,66,0.00,,,0.00,Wunderground v.1.15,2013-01-25 14:00:00,
2013-01-25 07:05:00,42.0,31.8,30.15,NNW,342,0.0,0.0,67,0.00,,,0.00,Wunderground v.1.15,2013-01-25 14:05:00,
2013-01-25 07:15:00,42.0,31.1,30.15,NNW,339,0.0,0.0,65,0.00,,,0.00,Wunderground v.1.15,2013-01-25 14:15:00,
2013-01-25 07:20:00,42.0,30.7,30.15,NNW,340,0.0,0.0,64,0.00,,,0.00,Wunderground v.1.15,2013-01-25 14:20:00,
2013-01-25 07:30:00,42.3,31.4,30.15,NNE,14,0.0,0.0,65,0.00,,,0.00,Wunderground v.1.15,2013-01-25 14:30:00,
2013-01-25 07:40:00,42.5,31.9,30.14,NNE,32,0.0,0.0,66,0.00,,,0.00,Wunderground v.1.15,2013-01-25 14:40:00,
2013-01-25 07:45:00,42.7,32.5,30.14,NNE,28,0.0,0.0,67,0.00,,,0.00,Wunderground v.1.15,2013-01-25 14:45:00,
2013-01-25 07:50:00,42.9,32.7,30.14,NNE,24,0.0,0.0,67,0.00,,,0.00,Wunderground v.1.15,2013-01-25 14:50:00,
2013-01-25 07:55:00,43.0,33.2,30.14,NNE,24,0.0,0.0,68,0.00,,,0.00,Wunderground v.1.15,2013-01-25 14:55:00,
2013-01-25 08:00:00,43.1,33.3,30.15,NNE,24,0.0,0.0,68,0.00,,,0.00,Wunderground v.1.15,2013-01-25 15:00:00,
2013-01-25 08:05:00,43.3,33.4,30.17,NNE,24,0.0,0.0,68,0.00,,,0.00,Wunderground v.1.15,2013-01-25 15:05:00,
2013-01-25 08:15:00,43.6,33.7,30.16,NNE,33,0.0,0.0,68,0.00,,,0.00,Wunderground v.1.15,2013-01-25 15:15:00,
2013-01-25 08:20:00,44.0,34.1,30.16,NNE,33,0.0,0.0,68,0.00,,,0.00,Wunderground v.1.15,2013-01-25 15:20:00,
2013-01-25 08:25:00,44.3,34.0,30.17,NNE,33,0.0,0.0,67,0.00,,,0.00,Wunderground v.1.15,2013-01-25 15:25:00,
2013-01-25 08:30:00,44.7,34.4,30.16,NNE,33,0.0,0.0,67,0.00,,,0.00,Wunderground v.1.15,2013-01-25 15:30:00,
2013-01-25 08:35:00,45.0,34.3,30.16,NNE,33,0.0,0.0,66,0.00,,,0.00,Wunderground v.1.15,2013-01-25 15:35:00,
2013-01-25 08:40:00,45.3,34.2,30.17,NNE,33,0.0,0.0,65,0.00,,,0.00,Wunderground v.1.15,2013-01-25 15:40:00,
2013-01-25 08:45:00,45.5,34.4,30.16,NNE,33,0.0,0.0,65,0.00,,,0.00,Wunderground v.1.15,2013-01-25 15:45:00,
2013-01-25 08:50:00,45.7,34.6,30.17,NNE,33,0.0,0.0,65,0.00,,,0.00,Wunderground v.1.15,2013-01-25 15:50:00,
2013-01-25 08:55:00,46.0,34.5,30.17,NNE,33,0.0,0.0,64,0.00,,,0.00,Wunderground v.1.15,2013-01-25 15:55:00,
2013-01-25 09:05:00,46.4,34.9,30.18,NNE,33,0.0,0.0,64,0.00,,,0.00,Wunderground v.1.15,2013-01-25 16:05:00,
2013-01-25 09:15:00,46.9,35.0,30.18,NNE,33,0.0,0.0,63,0.00,,,0.00,Wunderground v.1.15,2013-01-25 16:15:00,
2013-01-25 09:20:00,47.1,35.1,30.18,NNE,33,0.0,0.0,63,0.00,,,0.00,Wunderground v.1.15,2013-01-25 16:20:00,
2013-01-25 09:25:00,47.3,35.3,30.18,NNE,33,0.0,0.0,63,0.00,,,0.00,Wunderground v.1.15,2013-01-25 16:25:00,
2013-01-25 09:30:00,47.6,35.6,30.17,NNE,33,0.0,0.0,63,0.00,,,0.00,Wunderground v.1.15,2013-01-25 16:30:00,
2013-01-25 09:35:00,47.8,35.8,30.18,NNE,33,0.0,0.0,63,0.00,,,0.00,Wunderground v.1.15,2013-01-25 16:35:00,
2013-01-25 09:45:00,48.5,36.1,30.18,NNE,33,0.0,0.0,62,0.00,,,0.00,Wunderground v.1.15,2013-01-25 16:45:00,
2013-01-25 09:55:00,49.4,36.1,30.18,NNE,32,0.0,0.0,60,0.00,,,0.00,Wunderground v.1.15,2013-01-25 16:55:00,
2013-01-25 10:00:00,49.7,35.9,30.18,NNE,32,0.0,0.0,59,0.00,,,0.00,Wunderground v.1.15,2013-01-25 17:00:00,
2013-01-25 10:05:00,50.1,35.9,30.17,NNE,32,0.0,0.0,58,0.00,,,0.00,Wunderground v.1.15,2013-01-25 17:05:00,
2013-01-25 10:15:00,50.9,36.2,30.16,NNE,32,0.0,0.0,57,0.00,,,0.00,Wunderground v.1.15,2013-01-25 17:15:00,
2013-01-25 10:20:00,51.4,36.2,30.16,NNE,32,0.0,0.0,56,0.00,,,0.00,Wunderground v.1.15,2013-01-25 17:20:00,
2013-01-25 10:25:00,51.9,36.2,30.16,NNE,32,0.0,0.0,55,0.00,,,0.00,Wunderground v.1.15,2013-01-25 17:25:00,
2013-01-25 10:30:00,52.3,36.1,30.16,NNE,32,0.0,0.0,54,0.00,,,0.00,Wunderground v.1.15,2013-01-25 17:30:00,
2013-01-25 10:40:00,53.0,36.3,30.15,NNE,32,0.0,0.0,53,0.00,,,0.00,Wunderground v.1.15,2013-01-25 17:40:00,
2013-01-25 10:45:00,53.4,36.2,30.15,NNE,32,0.0,0.0,52,0.00,,,0.00,Wunderground v.1.15,2013-01-25 17:45:00,
2013-01-25 10:50:00,53.8,36.6,30.15,NNE,32,0.0,0.0,52,0.00,,,0.00,Wunderground v.1.15,2013-01-25 17:50:00,
2013-01-25 11:00:00,54.3,36.5,30.15,NNE,32,0.0,0.0,51,0.00,,,0.00,Wunderground v.1.15,2013-01-25 18:00:00,
2013-01-25 11:05:00,54.5,36.7,30.15,NNE,32,0.0,0.0,51,0.00,,,0.00,Wunderground v.1.15,2013-01-25 18:05:00,
2013-01-25 11:15:00,54.9,36.6,30.15,NNE,32,0.0,0.0,50,0.00,,,0.00,Wunderground v.1.15,2013-01-25 18:15:00,
2013-01-25 11:20:00,55.1,36.8,30.14,NNE,32,0.0,0.0,50,0.00,,,0.00,Wunderground v.1.15,2013-01-25 18:20:00,
2013-01-25 11:30:00,55.7,36.8,30.14,NNE,32,0.0,0.0,49,0.00,,,0.00,Wunderground v.1.15,2013-01-25 18:30:00,
2013-01-25 11:40:00,56.3,37.4,30.13,NNE,32,0.0,0.0,49,0.00,,,0.00,Wunderground v.1.15,2013-01-25 18:40:00,
2013-01-25 11:45:00,56.8,37.3,30.12,NNE,32,0.0,0.0,48,0.00,,,0.00,Wunderground v.1.15,2013-01-25 18:45:00,
2013-01-25 11:50:00,57.4,37.3,30.12,NNE,32,0.0,0.0,47,0.00,,,0.00,Wunderground v.1.15,2013-01-25 18:50:00,
2013-01-25 11:55:00,58.3,38.1,30.12,NNE,32,0.0,0.0,47,0.00,,,0.00,Wunderground v.1.15,2013-01-25 18:55:00,
2013-01-25 12:00:00,59.5,38.1,30.11,NNE,32,0.0,0.0,45,0.00,,,0.00,Wunderground v.1.15,2013-01-25 19:00:00,
2013-01-25 12:05:00,60.7,38.6,30.12,NNE,32,0.0,0.0,44,0.00,,,0.00,Wunderground v.1.15,2013-01-25 19:05:00,
2013-01-25 12:15:00,61.5,38.2,30.11,NNE,32,0.0,0.0,42,0.00,,,0.00,Wunderground v.1.15,2013-01-25 19:15:00,
2013-01-25 12:20:00,61.7,38.4,30.10,NNE,32,0.0,0.0,42,0.00,,,0.00,Wunderground v.1.15,2013-01-25 19:20:00,
2013-01-25 12:30:00,61.8,38.4,30.09,NNE,32,0.0,0.0,42,0.00,,,0.00,Wunderground v.1.15,2013-01-25 19:30:00,
2013-01-25 12:35:00,62.3,38.3,30.08,NNE,32,0.0,0.0,41,0.00,,,0.00,Wunderground v.1.15,2013-01-25 19:35:00,
2013-01-25 12:40:00,62.9,39.4,30.07,NNE,32,0.0,0.0,42,0.00,,,0.00,Wunderground v.1.15,2013-01-25 19:40:00,
2013-01-25 12:45:00,63.9,39.1,30.07,North,9,0.0,0.0,40,0.00,,,0.00,Wunderground v.1.15,2013-01-25 19:45:00,
2013-01-25 12:50:00,64.7,39.2,30.06,NNE,26,0.0,0.0,39,0.00,,,0.00,Wunderground v.1.15,2013-01-25 19:50:00,
2013-01-25 12:55:00,65.1,39.5,30.06,NNE,18,0.0,0.0,39,0.00,,,0.00,Wunderground v.1.15,2013-01-25 19:55:00,
2013-01-25 13:00:00,65.4,39.1,30.05,WNW,290,0.0,0.0,38,0.00,,,0.00,Wunderground v.1.15,2013-01-25 20:00:00,
2013-01-25 13:05:00,65.5,39.2,30.06,East,94,0.0,0.0,38,0.00,,,0.00,Wunderground v.1.15,2013-01-25 20:05:00,
2013-01-25 13:15:00,66.3,39.9,30.05,East,94,0.0,0.0,38,0.00,,,0.00,Wunderground v.1.15,2013-01-25 20:15:00,
2013-01-25 13:25:00,67.0,39.9,30.05,East,90,0.0,0.0,37,0.00,,,0.00,Wunderground v.1.15,2013-01-25 20:25:00,
2013-01-25 13:30:00,67.2,40.0,30.05,ESE,113,0.0,0.0,37,0.00,,,0.00,Wunderground v.1.15,2013-01-25 20:30:00,
2013-01-25 13:35:00,67.4,40.2,30.04,NE,36,0.0,0.0,37,0.00,,,0.00,Wunderground v.1.15,2013-01-25 20:35:00,
2013-01-25 13:40:00,67.7,40.5,30.03,West,281,0.0,0.0,37,0.00,,,0.00,Wunderground v.1.15,2013-01-25 20:40:00,
2013-01-25 13:45:00,67.9,40.7,30.03,SSE,167,0.0,0.0,37,0.00,,,0.00,Wunderground v.1.15,2013-01-25 20:45:00,
2013-01-25 13:50:00,68.0,40.0,30.03,WSW,247,0.0,0.0,36,0.00,,,0.00,Wunderground v.1.15,2013-01-25 20:50:00,
2013-01-25 13:55:00,67.9,39.9,30.03,West,272,0.0,0.0,36,0.00,,,0.00,Wunderground v.1.15,2013-01-25 20:55:00,
2013-01-25 14:00:00,68.0,40.7,30.03,South,174,0.0,0.0,37,0.00,,,0.00,Wunderground v.1.15,2013-01-25 21:00:00,
2013-01-25 14:05:00,68.1,40.1,30.03,SSE,157,0.0,0.0,36,0.00,,,0.00,Wunderground v.1.15,2013-01-25 21:05:00,
2013-01-25 14:15:00,68.1,40.1,30.02,SE,125,0.0,0.0,36,0.00,,,0.00,Wunderground v.1.15,2013-01-25 21:15:00,
2013-01-25 14:25:00,68.2,40.2,30.02,WSW,246,0.0,0.0,36,0.00,,,0.00,Wunderground v.1.15,2013-01-25 21:25:00,
2013-01-25 14:30:00,68.0,40.7,30.02,West,261,0.0,1.0,37,0.00,,,0.00,Wunderground v.1.15,2013-01-25 21:30:00,
2013-01-25 14:35:00,67.8,39.9,30.01,SE,125,0.0,1.0,36,0.00,,,0.00,Wunderground v.1.15,2013-01-25 21:35:00,
2013-01-25 14:40:00,67.6,40.4,30.01,SSW,203,0.0,0.0,37,0.00,,,0.00,Wunderground v.1.15,2013-01-25 21:40:00,
2013-01-25 14:45:00,67.3,40.1,30.02,SSE,160,0.0,0.0,37,0.00,,,0.00,Wunderground v.1.15,2013-01-25 21:45:00,
2013-01-25 14:55:00,67.1,40.6,30.02,SE,128,0.0,0.0,38,0.00,,,0.00,Wunderground v.1.15,2013-01-25 21:55:00,
2013-01-25 15:00:00,67.1,40.6,30.01,WSW,244,0.0,0.0,38,0.00,,,0.00,Wunderground v.1.15,2013-01-25 22:00:00,
2013-01-25 15:10:00,67.1,41.3,30.03,SE,146,0.0,0.0,39,0.00,,,0.00,Wunderground v.1.15,2013-01-25 22:10:00,
2013-01-25 15:15:00,67.0,41.2,30.03,SSE,148,0.0,0.0,39,0.00,,,0.00,Wunderground v.1.15,2013-01-25 22:15:00,
2013-01-25 15:20:00,66.9,41.1,30.02,SW,219,0.0,0.0,39,0.00,,,0.00,Wunderground v.1.15,2013-01-25 22:20:00,
2013-01-25 15:25:00,66.7,40.9,30.02,South,178,0.0,0.0,39,0.00,,,0.00,Wunderground v.1.15,2013-01-25 22:25:00,
2013-01-25 15:30:00,66.6,40.9,30.03,South,188,0.0,0.0,39,0.00,,,0.00,Wunderground v.1.15,2013-01-25 22:30:00,
2013-01-25 15:35:00,66.5,40.8,30.02,SSE,163,0.0,1.0,39,0.00,,,0.00,Wunderground v.1.15,2013-01-25 22:35:00,
2013-01-25 15:40:00,66.5,40.8,30.02,SSW,194,0.0,0.0,39,0.00,,,0.00,Wunderground v.1.15,2013-01-25 22:40:00,
2013-01-25 15:50:00,66.2,40.5,30.02,SSE,159,0.0,0.0,39,0.00,,,0.00,Wunderground v.1.15,2013-01-25 22:50:00,
2013-01-25 15:55:00,66.1,40.4,30.02,SSE,168,0.0,0.0,39,0.00,,,0.00,Wunderground v.1.15,2013-01-25 22:55:00,
2013-01-25 16:00:00,65.9,40.2,30.02,South,169,0.0,0.0,39,0.00,,,0.00,Wunderground v.1.15,2013-01-25 23:00:00,
2013-01-25 16:05:00,65.6,40.6,30.02,SSE,158,0.0,0.0,40,0.00,,,0.00,Wunderground v.1.15,2013-01-25 23:05:00,
2013-01-25 16:15:00,65.1,40.8,30.02,South,184,0.0,0.0,41,0.00,,,0.00,Wunderground v.1.15,2013-01-25 23:15:00,
2013-01-25 16:20:00,64.9,40.6,30.02,South,184,0.0,0.0,41,0.00,,,0.00,Wunderground v.1.15,2013-01-25 23:20:00,
2013-01-25 16:25:00,64.7,40.4,30.02,South,181,0.0,0.0,41,0.00,,,0.00,Wunderground v.1.15,2013-01-25 23:25:00,
2013-01-25 16:30:00,64.7,40.4,30.01,South,180,0.0,0.0,41,0.00,,,0.00,Wunderground v.1.15,2013-01-25 23:30:00,
2013-01-25 16:40:00,64.3,40.7,30.02,South,182,0.0,0.0,42,0.00,,,0.00,Wunderground v.1.15,2013-01-25 23:40:00,
2013-01-25 16:45:00,64.1,40.5,30.02,South,182,0.0,0.0,42,0.00,,,0.00,Wunderground v.1.15,2013-01-25 23:45:00,
2013-01-25 16:50:00,64.0,40.4,30.03,South,182,0.0,0.0,42,0.00,,,0.00,Wunderground v.1.15,2013-01-25 23:50:00,
2013-01-25 16:55:00,63.8,40.3,30.02,South,182,0.0,0.0,42,0.00,,,0.00,Wunderground v.1.15,2013-01-25 23:55:00,
2013-01-25 17:00:00,63.5,40.6,30.03,South,182,0.0,0.0,43,0.00,,,0.00,Wunderground v.1.15,2013-01-26 00:00:00,
2013-01-25 17:05:00,63.3,40.4,30.04,South,182,0.0,0.0,43,0.00,,,0.00,Wunderground v.1.15,2013-01-26 00:05:00,
2013-01-25 17:15:00,62.9,40.0,30.04,South,182,0.0,0.0,43,0.00,,,0.00,Wunderground v.1.15,2013-01-26 00:15:00,
2013-01-25 17:20:00,62.7,39.9,30.04,South,182,0.0,0.0,43,0.00,,,0.00,Wunderground v.1.15,2013-01-26 00:20:00,
2013-01-25 17:25:00,62.4,40.2,30.04,South,182,0.0,0.0,44,0.00,,,0.00,Wunderground v.1.15,2013-01-26 00:25:00,
2013-01-25 17:30:00,62.2,40.0,30.05,South,182,0.0,0.0,44,0.00,,,0.00,Wunderground v.1.15,2013-01-26 00:30:00,
2013-01-25 17:35:00,61.9,39.7,30.05,South,182,0.0,0.0,44,0.00,,,0.00,Wunderground v.1.15,2013-01-26 00:35:00,
2013-01-25 17:45:00,61.4,39.9,30.05,South,182,0.0,0.0,45,0.00,,,0.00,Wunderground v.1.15,2013-01-26 00:45:00,
2013-01-25 17:50:00,61.0,39.5,30.05,South,182,0.0,0.0,45,0.00,,,0.00,Wunderground v.1.15,2013-01-26 00:50:00,
2013-01-25 17:55:00,60.5,39.6,30.04,South,182,0.0,0.0,46,0.00,,,0.00,Wunderground v.1.15,2013-01-26 00:55:00,
2013-01-25 18:00:00,60.2,39.3,30.06,South,182,0.0,0.0,46,0.00,,,0.00,Wunderground v.1.15,2013-01-26 01:00:00,
2013-01-25 18:05:00,59.6,39.9,30.06,South,182,0.0,0.0,48,0.00,,,0.00,Wunderground v.1.15,2013-01-26 01:05:00,
2013-01-25 18:15:00,58.9,39.8,30.07,South,180,0.0,0.0,49,0.00,,,0.00,Wunderground v.1.15,2013-01-26 01:15:00,
2013-01-25 18:25:00,58.2,39.1,30.06,South,181,0.0,0.0,49,0.00,,,0.00,Wunderground v.1.15,2013-01-26 01:25:00,
2013-01-25 18:30:00,58.0,39.5,30.07,South,180,0.0,0.0,50,0.00,,,0.00,Wunderground v.1.15,2013-01-26 01:30:00,
2013-01-25 18:35:00,57.7,39.2,30.07,South,181,0.0,0.0,50,0.00,,,0.00,Wunderground v.1.15,2013-01-26 01:35:00,
2013-01-25 18:40:00,57.5,39.0,30.07,South,181,0.0,0.0,50,0.00,,,0.00,Wunderground v.1.15,2013-01-26 01:40:00,
2013-01-25 18:45:00,57.2,39.2,30.08,South,180,0.0,0.0,51,0.00,,,0.00,Wunderground v.1.15,2013-01-26 01:45:00,
2013-01-25 18:55:00,56.7,39.3,30.08,South,181,0.0,0.0,52,0.00,,,0.00,Wunderground v.1.15,2013-01-26 01:55:00,
2013-01-25 19:05:00,56.3,38.9,30.08,South,181,0.0,0.0,52,0.00,,,0.00,Wunderground v.1.15,2013-01-26 02:05:00,
2013-01-25 19:15:00,55.9,39.0,30.07,South,181,0.0,0.0,53,0.00,,,0.00,Wunderground v.1.15,2013-01-26 02:15:00,
2013-01-25 19:20:00,55.6,38.7,30.07,South,181,0.0,0.0,53,0.00,,,0.00,Wunderground v.1.15,2013-01-26 02:20:00,
2013-01-25 19:25:00,55.3,38.4,30.07,South,181,0.0,0.0,53,0.00,,,0.00,Wunderground v.1.15,2013-01-26 02:25:00,
2013-01-25 19:30:00,55.0,38.2,30.07,South,180,0.0,0.0,53,0.00,,,0.00,Wunderground v.1.15,2013-01-26 02:30:00,
2013-01-25 19:35:00,54.6,38.3,30.08,South,181,0.0,0.0,54,0.00,,,0.00,Wunderground v.1.15,2013-01-26 02:35:00,
2013-01-25 19:40:00,54.4,38.1,30.08,South,180,0.0,0.0,54,0.00,,,0.00,Wunderground v.1.15,2013-01-26 02:40:00,
2013-01-25 19:50:00,54.1,37.8,30.09,South,180,0.0,0.0,54,0.00,,,0.00,Wunderground v.1.15,2013-01-26 02:50:00,
2013-01-25 19:55:00,54.0,37.7,30.09,South,181,0.0,0.0,54,0.00,,,0.00,Wunderground v.1.15,2013-01-26 02:55:00,
2013-01-25 20:05:00,53.5,37.7,30.07,South,180,0.0,0.0,55,0.00,,,0.00,Wunderground v.1.15,2013-01-26 03:05:00,
2013-01-25 20:15:00,53.2,37.4,30.08,South,180,0.0,0.0,55,0.00,,,0.00,Wunderground v.1.15,2013-01-26 03:15:00,
2013-01-25 20:20:00,53.1,37.3,30.08,South,181,0.0,0.0,55,0.00,,,0.00,Wunderground v.1.15,2013-01-26 03:20:00,
2013-01-25 20:25:00,53.0,37.7,30.08,South,180,0.0,0.0,56,0.00,,,0.00,Wunderground v.1.15,2013-01-26 03:25:00,
2013-01-25 20:35:00,52.8,37.5,30.08,South,181,0.0,0.0,56,0.00,,,0.00,Wunderground v.1.15,2013-01-26 03:35:00,
2013-01-25 20:40:00,52.8,37.5,30.09,South,181,0.0,0.0,56,0.00,,,0.00,Wunderground v.1.15,2013-01-26 03:40:00,
2013-01-25 20:45:00,52.7,37.9,30.09,South,181,0.0,0.0,57,0.00,,,0.00,Wunderground v.1.15,2013-01-26 03:45:00,
2013-01-25 20:50:00,52.6,37.8,30.09,South,181,0.0,0.0,57,0.00,,,0.00,Wunderground v.1.15,2013-01-26 03:50:00,
2013-01-25 20:55:00,52.6,37.8,30.09,South,181,0.0,0.0,57,0.00,,,0.00,Wunderground v.1.15,2013-01-26 03:55:00,
2013-01-25 21:00:00,52.5,37.7,30.09,South,181,0.0,0.0,57,0.00,,,0.00,Wunderground v.1.15,2013-01-26 04:00:00,
2013-01-25 21:05:00,52.5,37.7,30.07,South,181,0.0,0.0,57,0.00,,,0.00,Wunderground v.1.15,2013-01-26 04:05:00,
2013-01-25 21:15:00,52.4,38.0,30.07,South,181,0.0,0.0,58,0.00,,,0.00,Wunderground v.1.15,2013-01-26 04:15:00,
2013-01-25 21:25:00,52.3,38.0,30.07,South,181,0.0,0.0,58,0.00,,,0.00,Wunderground v.1.15,2013-01-26 04:25:00,
2013-01-25 21:30:00,52.3,38.0,30.07,South,181,0.0,0.0,58,0.00,,,0.00,Wunderground v.1.15,2013-01-26 04:30:00,
2013-01-25 21:35:00,52.3,38.0,30.07,South,181,0.0,0.0,58,0.00,,,0.00,Wunderground v.1.15,2013-01-26 04:35:00,
2013-01-25 21:40:00,52.2,37.9,30.07,South,180,0.0,0.0,58,0.00,,,0.00,Wunderground v.1.15,2013-01-26 04:40:00,
2013-01-25 21:50:00,52.0,37.7,30.07,South,181,0.0,0.0,58,0.00,,,0.00,Wunderground v.1.15,2013-01-26 04:50:00,
2013-01-25 21:55:00,51.9,37.6,30.07,South,181,0.0,0.0,58,0.00,,,0.00,Wunderground v.1.15,2013-01-26 04:55:00,
2013-01-25 22:00:00,51.8,37.5,30.07,South,181,0.0,0.0,58,0.00,,,0.00,Wunderground v.1.15,2013-01-26 05:00:00,
2013-01-25 22:05:00,51.7,37.8,30.05,South,181,0.0,0.0,59,0.00,,,0.00,Wunderground v.1.15,2013-01-26 05:05:00,
2013-01-25 22:15:00,51.4,37.5,30.05,South,181,0.0,0.0,59,0.00,,,0.00,Wunderground v.1.15,2013-01-26 05:15:00,
2013-01-25 22:20:00,51.3,37.4,30.05,South,181,0.0,0.0,59,0.00,,,0.00,Wunderground v.1.15,2013-01-26 05:20:00,
2013-01-25 22:25:00,51.2,37.4,30.05,South,181,0.0,0.0,59,0.00,,,0.00,Wunderground v.1.15,2013-01-26 05:25:00,
2013-01-25 22:30:00,51.2,37.4,30.05,South,181,0.0,0.0,59,0.00,,,0.00,Wunderground v.1.15,2013-01-26 05:30:00,
2013-01-25 22:35:00,51.1,37.3,30.05,South,181,0.0,0.0,59,0.00,,,0.00,Wunderground v.1.15,2013-01-26 05:35:00,
2013-01-25 22:40:00,51.0,37.6,30.05,South,181,0.0,0.0,60,0.00,,,0.00,Wunderground v.1.15,2013-01-26 05:40:00,
2013-01-25 22:45:00,51.0,37.6,30.05,South,181,0.0,0.0,60,0.00,,,0.00,Wunderground v.1.15,2013-01-26 05:45:00,
2013-01-25 22:50:00,50.9,37.5,30.05,South,180,0.0,0.0,60,0.00,,,0.00,Wunderground v.1.15,2013-01-26 05:50:00,
2013-01-25 22:55:00,50.9,37.5,30.05,South,181,0.0,0.0,60,0.00,,,0.00,Wunderground v.1.15,2013-01-26 05:55:00,
2013-01-25 23:00:00,50.8,37.4,30.05,South,180,0.0,0.0,60,0.00,,,0.00,Wunderground v.1.15,2013-01-26 06:00:00,
2013-01-25 23:10:00,50.8,37.8,30.02,South,180,0.0,0.0,61,0.00,,,0.00,Wunderground v.1.15,2013-01-26 06:10:00,
2013-01-25 23:15:00,50.8,37.8,30.02,South,181,0.0,0.0,61,0.00,,,0.00,Wunderground v.1.15,2013-01-26 06:15:00,
2013-01-25 23:20:00,50.8,37.8,30.03,South,180,0.0,0.0,61,0.00,,,0.00,Wunderground v.1.15,2013-01-26 06:20:00,
2013-01-25 23:25:00,50.8,37.8,30.03,South,180,0.0,0.0,61,0.00,,,0.00,Wunderground v.1.15,2013-01-26 06:25:00,
2013-01-25 23:30:00,50.8,37.8,30.02,South,181,0.0,0.0,61,0.00,,,0.00,Wunderground v.1.15,2013-01-26 06:30:00,
2013-01-25 23:35:00,50.8,37.8,30.02,South,180,0.0,0.0,61,0.00,,,0.00,Wunderground v.1.15,2013-01-26 06:35:00,
2013-01-25 23:40:00,50.8,38.2,30.02,South,181,0.0,0.0,62,0.00,,,0.00,Wunderground v.1.15,2013-01-26 06:40:00,
2013-01-25 23:45:00,50.7,37.7,30.03,South,180,0.0,0.0,61,0.00,,,0.00,Wunderground v.1.15,2013-01-26 06:45:00,
2013-01-25 23:50:00,50.7,37.7,30.03,South,181,0.0,0.0,61,0.00,,,0.00,Wunderground v.1.15,2013-01-26 06:50:00,